Location: Asheville, NC
(35.6000°N, 82.5500°W)
Time: 10:59:01

Vanguard 1 Rocket - Pass Details

Date: 14 December 2017
Orbit: 655 x 4222 km, 34.3° (Epoch: 22 March)

Event Time Altitude Azimuth Distance (km) Brightness Sun altitude
Rises 00:39:55 0° 286° (WNW) 7,265 12.0 -77.2°
Reaches altitude 10° 00:44:56 10° 278° (W) 6,629 11.7 -76.9°
Enters shadow 00:44:57 10° 278° (W) 6,626 11.7 -76.9°
Exits shadow 01:26:40 - 163° (SSE) 6,932 11.7 -71.8°
Sets 01:31:30 0° 156° (SSE) 7,513 12.0 -71.0°
